GORIZONT 28 [-]

Last updated on Jan. 25, 2020, 4:43 a.m. UTC

1 22880U 93069A   20024.22693362 -.00000138  00000-0  00000-0 0  9991
2 22880  14.9252   6.4853 0029183 103.0246 269.9207  0.99658622 95859
UTC
Height (km)
Latitude
Longitude
Inclination
Orbital Period
UTC large
Height (km)
Speed (km/s)
/
Latitude / Longitude
Inclination (degrees)
Orbital Period (minutes)
Azimuth
Elevation
Range (km)
Doppler Factor
iOS Compass Heading
iOS Angle

Next 30 passes for location: Hong Kong

Rise time Rise Azimuth (degrees) Set time Set Azimuth (degrees) Duration Max altitude (degrees)

No matching passes for this satellites